Rogers, AR

4:47 AM CST on February 09, 2016 (GMT -0600)
Rogers Municipal-Carter

Weather History for KROG - September, 2013

Change the Weather History Date:

Thursday, September 12, 2013

  Actual Average Record
Temperature  
Mean Temperature 78 °F -  
Max Temperature 89 °F 79 °F 90 °F (2011)
Min Temperature 68 °F 59 °F 48 °F (2015)
Cooling Degree Days 14    
Growing Degree Days 28 (Base 50)    
Moisture  
Dew Point 67 °F    
Average Humidity 72    
Maximum Humidity 96    
Minimum Humidity 45    
Precipitation  
Precipitation 0.00 in - - ()
Sea Level Pressure  
Sea Level Pressure 30.07 in    
Wind  
Wind Speed 3 mph (North)    
Max Wind Speed 13 mph    
Max Gust Speed 22 mph    
Visibility 8 miles    
Events      
Averages and records for this station are not official NWS values.
T = Trace of Precipitation, MM = Missing Value Source: NWS Daily Summary

Daily Weather History Graph

Daily Weather History Graph

Search for Another Location

Airport or City:

Trip Planner

Search our weather history database for the weather conditions in past years. The results will help you decide how hot, cold, wet, or windy it might be!

Date:

Astronomy

Sep. 12, 2013 Rise Set
Actual Time 6:56 AM CDT 7:27 PM CDT
Civil Twilight 6:30 AM CDT 7:53 PM CDT
Nautical Twilight 6:00 AM CDT 8:24 PM CDT
Astronomical Twilight 5:29 AM CDT 8:55 PM CDT
Moon 2:13 PM CDT (9/12) No Moon Set
Length of Visible Light 13h 22m
Length of Day
12h 31m
Waxing Crescent, 50% of the Moon is Illuminated
Sep 12
Waxing Crescent
Sep 12
First Quarter
Sep 19
Full
Sep 26
Last Quarter
Oct 4
New

Hourly Weather History & Observations

Time (CDT) Temp. Heat Index Dew Point Humidity Pressure Visibility Wind Dir Wind Speed Gust Speed Precip Events Conditions
12:57 AM 73.9 °F - 66.9 °F 79% 30.08 in 10.0 mi ESE 3.5 mph - N/A   Clear
1:57 AM 73.0 °F - 66.9 °F 81% 30.08 in 10.0 mi Calm Calm - N/A   Clear
2:57 AM 72.0 °F - 66.0 °F 81% 30.06 in 10.0 mi Calm Calm - N/A   Clear
3:57 AM 71.1 °F - 66.9 °F 87% 30.06 in 10.0 mi Calm Calm - N/A   Partly Cloudy
4:57 AM 71.1 °F - 66.9 °F 87% 30.06 in 8.0 mi Calm Calm - N/A   Partly Cloudy
5:57 AM 69.1 °F - 66.9 °F 93% 30.06 in 5.0 mi ENE 3.5 mph - N/A   Partly Cloudy
6:54 AM 68.0 °F - 66.2 °F 94% 30.12 in 2.5 mi Calm Calm - N/A   Clear
6:57 AM 68.0 °F - 66.9 °F 96% 30.08 in 2.0 mi Calm Calm - N/A   Clear
7:05 AM 69.8 °F - 66.2 °F 88% 30.13 in 3.0 mi Calm Calm - N/A   Clear
7:57 AM 72.0 °F - 69.1 °F 91% 30.09 in 5.0 mi SE 3.5 mph - N/A   Clear
8:57 AM 75.0 °F - 69.1 °F 82% 30.11 in 8.0 mi NNW 3.5 mph - N/A   Clear
9:57 AM 78.1 °F - 68.0 °F 71% 30.11 in 10.0 mi NNW 3.5 mph - N/A   Clear
10:57 AM 82.0 °F 84.5 °F 66.9 °F 60% 30.11 in 9.0 mi Variable 3.5 mph - N/A   Clear
11:57 AM 84.0 °F 86.5 °F 66.9 °F 56% 30.09 in 10.0 mi Variable 3.5 mph - N/A   Clear
12:57 PM 88.0 °F 90.3 °F 66.0 °F 48% 30.08 in 8.0 mi North 8.1 mph - N/A   Clear
1:57 PM 89.1 °F 92.1 °F 66.9 °F 48% 30.06 in 10.0 mi NNW 12.7 mph 17.3 mph N/A   Clear
2:57 PM 89.1 °F 91.0 °F 64.9 °F 45% 30.04 in 10.0 mi NNW 11.5 mph 21.9 mph N/A   Clear
3:57 PM 88.0 °F 90.3 °F 66.0 °F 48% 30.02 in 10.0 mi North 8.1 mph - N/A   Partly Cloudy
4:57 PM 88.0 °F 90.3 °F 66.0 °F 48% 30.01 in 10.0 mi North 9.2 mph - N/A   Clear
5:57 PM 84.9 °F 87.1 °F 66.0 °F 53% 30.01 in 10.0 mi North 5.8 mph - N/A   Clear
6:57 PM 82.0 °F 84.5 °F 66.9 °F 60% 30.02 in 10.0 mi NNW 4.6 mph - N/A   Clear
7:57 PM 79.0 °F - 66.9 °F 66% 30.03 in 10.0 mi North 4.6 mph - N/A   Clear
8:57 PM 77.0 °F - 68.0 °F 74% 30.05 in 10.0 mi North 8.1 mph - N/A   Scattered Clouds
9:57 PM 73.9 °F - 66.0 °F 76% 30.06 in 10.0 mi NNE 8.1 mph - N/A   Clear
10:57 PM 72.0 °F - 66.0 °F 81% 30.06 in 10.0 mi NNE 4.6 mph - N/A   Clear
11:57 PM 72.0 °F - 66.0 °F 81% 30.06 in 10.0 mi NNE 3.5 mph - N/A   Mostly Cloudy